TimeCST,TemperatureF,Dew PointF,Humidity,Sea Level PressureIn,VisibilityMPH,Wind Direction,Wind SpeedMPH,Gust SpeedMPH,PrecipitationIn,Events,Conditions,WindDirDegrees,DateUTC
12:53 AM,46.9,32.0,56,29.96,10.0,SSE,10.4,-,N/A,,Clear,160,2013-03-04 06:53:00
1:53 AM,46.9,33.1,59,29.95,10.0,South,9.2,-,N/A,,Clear,170,2013-03-04 07:53:00
2:53 AM,46.9,35.1,63,29.93,10.0,South,9.2,-,N/A,,Clear,170,2013-03-04 08:53:00
3:53 AM,46.9,37.0,68,29.91,10.0,South,12.7,-,N/A,,Clear,170,2013-03-04 09:53:00
4:53 AM,46.0,37.9,73,29.91,10.0,South,9.2,-,N/A,,Clear,170,2013-03-04 10:53:00
5:53 AM,46.0,39.0,76,29.89,10.0,SSE,8.1,-,N/A,,Clear,150,2013-03-04 11:53:00
6:53 AM,46.0,39.9,79,29.89,10.0,SSE,9.2,-,N/A,,Clear,160,2013-03-04 12:53:00
7:53 AM,48.9,43.0,80,29.88,10.0,South,11.5,20.7,N/A,,Clear,170,2013-03-04 13:53:00
8:53 AM,54.0,45.0,72,29.86,10.0,SSE,15.0,23.0,N/A,,Clear,160,2013-03-04 14:53:00
9:53 AM,59.0,48.0,67,29.82,10.0,South,15.0,25.3,N/A,,Partly Cloudy,170,2013-03-04 15:53:00
10:53 AM,64.0,50.0,60,29.80,10.0,South,19.6,29.9,N/A,,Scattered Clouds,180,2013-03-04 16:53:00
11:53 AM,64.9,51.1,61,29.79,10.0,South,23.0,32.2,N/A,,Partly Cloudy,190,2013-03-04 17:53:00
12:53 PM,71.1,51.1,49,29.75,10.0,SSW,21.9,33.4,N/A,,Partly Cloudy,200,2013-03-04 18:53:00
1:53 PM,73.0,52.0,48,29.70,10.0,South,24.2,34.5,N/A,,Scattered Clouds,180,2013-03-04 19:53:00
2:53 PM,73.0,52.0,48,29.70,10.0,South,21.9,32.2,N/A,,Partly Cloudy,190,2013-03-04 20:53:00
3:53 PM,73.0,52.0,48,29.69,10.0,South,17.3,26.5,N/A,,Clear,190,2013-03-04 21:53:00
4:53 PM,72.0,52.0,49,29.69,10.0,South,15.0,27.6,N/A,,Clear,180,2013-03-04 22:53:00
5:53 PM,71.1,53.1,53,29.70,10.0,South,13.8,26.5,N/A,,Clear,190,2013-03-04 23:53:00
6:53 PM,69.1,53.1,57,29.73,10.0,South,13.8,-,N/A,,Clear,180,2013-03-05 00:53:00
7:53 PM,66.9,54.0,63,29.73,10.0,South,16.1,-,N/A,,Clear,180,2013-03-05 01:53:00
8:53 PM,64.9,54.0,68,29.74,10.0,South,9.2,-,N/A,,Clear,170,2013-03-05 02:53:00
9:53 PM,63.0,55.0,75,29.76,10.0,South,9.2,-,N/A,,Clear,170,2013-03-05 03:53:00
10:53 PM,63.0,55.9,78,29.75,10.0,South,13.8,20.7,N/A,,Clear,170,2013-03-05 04:53:00
11:53 PM,62.1,55.9,80,29.75,10.0,South,12.7,-,N/A,,Clear,180,2013-03-05 05:53:00